Погода в Биккулове

Россия / Республика Башкортостан     53°44′25″N   54°53′18″E
темп.,
°C
ветер,
м/с
пор.,
м/с
влажн.,
%
обл.,
%
осадки,
мм/ч
давл.,
гПа
погр.,
м
13 апреля, вт
вт1323:00+6ссв2599100 0.0 1038126
02:00+5ссв229997 0.0 103883
05:00+6св1198100 0.0 103815
08:00+7юв268996 0.0 1038156
11:00+9ююв596960 0.0 1039378
14:00+13ююв566349 0.0 1038674
17:00+15ююв45586 0.0 1037834
20:00+11ююв33785 0.0 103637
14 апреля, ср
ср1423:00+9ююв378353 0.0 1036122
02:00+7ююв34845 0.0 103567
05:00+6ю22845 0.0 103512
08:00+7юв237823 0.0 1035103
11:00+12юв45455 0.0 1033460
14:00+15юв45355 0.0 1031836
17:00+17юв44335 0.0 1029960
20:00+13юв22500 0.0 102813
15 апреля, чт
чт1523:00+9ююв34600 0.0 102860
02:00+7ююв33670 0.0 102824
05:00+6ююв226921 0.0 102822
08:00+7ююв24682 0.0 1027121
11:00+14ю45460 0.0 1025517
14:00+17ю45350 0.0 1024983
17:00+18ю45310 0.0 10221223
20:00+14ю22455 0.0 102110
16 апреля, пт
пт1623:00+11ю225049 0.0 102010
02:00+10ю115316 0.0 101910
05:00+8ю115783 0.0 101810
08:00+9ююз1157100 0.0 101810
11:00+14зюз114298 0.0 1016349
14:00+17зсз223184 0.0 10151369
17:00+18зсз3328100 0.0 10141737
20:00+14з22484 0.0 101320
17 апреля, сб
сб1723:00+11ссв5108041 0.0 1014298
02:00+6с7118650 0.0 1015446
05:00+4с71081100 0.0 1016642
08:00+3с7107197 0.0 1016828
11:00+5с8105958 0.0 10161267
14:00+6с91045100 0.0 10162203
17:00+6с91136100 0.1 10172515
20:00+4ссв812394 0.0 10191106